4XCWC LLHA-LLHZ

Flight info

Callsign 4XCWC
Flight time 0h 23m
Altitude 1200
Route GALIM DAROM HOTRM BOREN FRDIS SDTYM OLGAH PELEG VINGT SFAIM APOLN ARENA HTZUK KNTRY COASTLINE
Aircraft C172/L-V/N

Departure

Time 2026-04-29 16:16
Airport Uri Michaeli Haifa International Airport (LLHA)

Arrival

Time 2026-04-29 16:39
Airport Herzliya Airport (LLHZ)
Time Latitude Longitude Altitude Speed Heading
2026-04-29 16:14 32.80919 35.04413 13 ft 27 kts 160°
2026-04-29 16:14 32.80733 35.04491 11 ft 28 kts 161°
2026-04-29 16:15 32.80618 35.04571 10 ft 11 kts 355°
2026-04-29 16:15 32.80630 35.04546 10 ft 17 kts 321°
2026-04-29 16:15 32.80961 35.04397 105 ft 81 kts 338°
2026-04-29 16:15 32.81608 35.04101 379 ft 111 kts 339°
2026-04-29 16:16 32.82342 35.03769 787 ft 114 kts 336°
2026-04-29 16:16 32.83084 35.03336 1099 ft 123 kts 328°
2026-04-29 16:16 32.83745 35.02700 1509 ft 125 kts 307°
2026-04-29 16:16 32.83910 35.01633 1738 ft 139 kts 269°
2026-04-29 16:17 32.83802 35.00482 1890 ft 148 kts 268°
2026-04-29 16:17 32.83682 34.99226 1841 ft 157 kts 266°
2026-04-29 16:17 32.83565 34.97976 2008 ft 152 kts 266°
2026-04-29 16:17 32.83370 34.96749 1993 ft 158 kts 262°
2026-04-29 16:18 32.83036 34.95481 1934 ft 163 kts 239°
2026-04-29 16:18 32.81968 34.95038 1801 ft 176 kts 181°
2026-04-29 16:18 32.80795 34.95023 1809 ft 157 kts 180°
2026-04-29 16:18 32.79766 34.95073 1982 ft 141 kts 179°
2026-04-29 16:19 32.78813 34.95138 2121 ft 135 kts 179°
2026-04-29 16:19 32.77874 34.95206 2159 ft 136 kts 178°
2026-04-29 16:19 32.76924 34.95268 2178 ft 137 kts 181°
2026-04-29 16:19 32.76004 34.94980 2113 ft 141 kts 209°
2026-04-29 16:20 32.75131 34.94417 2052 ft 143 kts 212°
2026-04-29 16:20 32.74271 34.93863 2094 ft 139 kts 207°
2026-04-29 16:20 32.73414 34.93378 2151 ft 136 kts 210°
2026-04-29 16:20 32.72573 34.92873 2198 ft 136 kts 211°
2026-04-29 16:21 32.71736 34.92358 2235 ft 135 kts 212°
2026-04-29 16:21 32.70894 34.91876 2271 ft 136 kts 207°
2026-04-29 16:21 32.69975 34.91552 2228 ft 143 kts 191°
2026-04-29 16:21 32.68957 34.91454 2169 ft 149 kts 185°
2026-04-29 16:22 32.67954 34.91394 2228 ft 144 kts 187°
2026-04-29 16:22 32.66971 34.91310 2249 ft 141 kts 186°
2026-04-29 16:22 32.65983 34.91223 2271 ft 142 kts 182°
2026-04-29 16:22 32.64998 34.91205 2337 ft 141 kts 182°
2026-04-29 16:23 32.64040 34.91209 2358 ft 140 kts 181°
2026-04-29 16:23 32.63059 34.91188 2368 ft 142 kts 183°
2026-04-29 16:23 32.62068 34.91147 2376 ft 143 kts 184°
2026-04-29 16:23 32.61064 34.91095 2432 ft 144 kts 183°
2026-04-29 16:24 32.60076 34.91041 2592 ft 141 kts 185°
2026-04-29 16:24 32.59123 34.90992 2773 ft 134 kts 185°
2026-04-29 16:24 32.58132 34.90865 2387 ft 169 kts 193°
2026-04-29 16:24 32.56887 34.90561 1728 ft 190 kts 194°
2026-04-29 16:25 32.55599 34.90149 1139 ft 191 kts 199°
2026-04-29 16:25 32.54336 34.89689 833 ft 185 kts 199°
2026-04-29 16:25 32.53157 34.89253 866 ft 172 kts 200°
2026-04-29 16:25 32.52017 34.88836 757 ft 170 kts 199°
2026-04-29 16:26 32.50882 34.88448 727 ft 167 kts 198°
2026-04-29 16:26 32.49789 34.88100 858 ft 160 kts 198°
2026-04-29 16:26 32.48658 34.87782 768 ft 170 kts 196°
2026-04-29 16:26 32.47519 34.87443 844 ft 166 kts 196°
2026-04-29 16:27 32.46396 34.87117 683 ft 173 kts 193°
2026-04-29 16:27 32.45247 34.86829 771 ft 167 kts 193°
2026-04-29 16:27 32.44126 34.86578 982 ft 157 kts 193°
2026-04-29 16:27 32.43085 34.86360 1205 ft 155 kts 191°
2026-04-29 16:28 32.41996 34.86118 1240 ft 162 kts 192°
2026-04-29 16:28 32.40855 34.85884 1116 ft 172 kts 191°
2026-04-29 16:28 32.39683 34.85654 1058 ft 171 kts 192°
2026-04-29 16:28 32.38524 34.85396 1105 ft 168 kts 193°
2026-04-29 16:29 32.37417 34.85128 1394 ft 155 kts 192°
2026-04-29 16:29 32.36363 34.84851 1280 ft 157 kts 196°
2026-04-29 16:29 32.35285 34.84540 1165 ft 163 kts 200°
2026-04-29 16:29 32.34207 34.84100 1069 ft 157 kts 200°
2026-04-29 16:30 32.33191 34.83633 973 ft 154 kts 193°
2026-04-29 16:30 32.32100 34.83573 1016 ft 156 kts 175°
2026-04-29 16:30 32.31013 34.83627 1028 ft 160 kts 178°
2026-04-29 16:30 32.29866 34.83614 942 ft 168 kts 182°
2026-04-29 16:31 32.28701 34.83435 875 ft 169 kts 190°
2026-04-29 16:31 32.27630 34.83284 900 ft 163 kts 186°
2026-04-29 16:31 32.26425 34.82989 878 ft 162 kts 199°
2026-04-29 16:31 32.25344 34.82520 553 ft 161 kts 206°
2026-04-29 16:32 32.24356 34.82068 705 ft 143 kts 204°
2026-04-29 16:32 32.23759 34.81804 841 ft 133 kts 203°
2026-04-29 16:32 32.22487 34.81260 823 ft 163 kts 203°
2026-04-29 16:32 32.21359 34.80809 717 ft 170 kts 201°
2026-04-29 16:33 32.19209 34.79980 1049 ft 168 kts 199°
2026-04-29 16:33 32.18073 34.79531 955 ft 174 kts 201°
2026-04-29 16:33 32.16956 34.79104 1089 ft 164 kts 199°
2026-04-29 16:34 32.15856 34.78680 1165 ft 169 kts 200°
2026-04-29 16:34 32.14729 34.78646 1258 ft 167 kts 155°
2026-04-29 16:34 32.13902 34.79643 1027 ft 171 kts 102°
2026-04-29 16:34 32.14130 34.80851 992 ft 150 kts 26°
2026-04-29 16:35 32.15149 34.81280 820 ft 157 kts 14°
2026-04-29 16:35 32.16174 34.81678 705 ft 152 kts 15°
2026-04-29 16:35 32.17178 34.82081 681 ft 152 kts 17°
2026-04-29 16:35 32.18101 34.82665 812 ft 150 kts 18°
2026-04-29 16:36 32.18912 34.83263 985 ft 143 kts 76°
2026-04-29 16:36 32.18759 34.84293 976 ft 123 kts 103°
2026-04-29 16:36 32.18500 34.85239 773 ft 120 kts 134°
2026-04-29 16:36 32.17786 34.85277 720 ft 100 kts 220°
2026-04-29 16:37 32.17665 34.84689 514 ft 67 kts 285°
2026-04-29 16:37 32.17809 34.84219 261 ft 61 kts 288°
2026-04-29 16:37 32.17940 34.83772 127 ft 55 kts 289°
2026-04-29 16:37 32.18023 34.83497 113 ft 61 kts 291°
2026-04-29 16:38 32.18404 34.82645 514 ft 101 kts 350°
2026-04-29 16:38 32.18903 34.83247 687 ft 139 kts 86°
2026-04-29 16:38 32.18764 34.84473 736 ft 156 kts 99°
2026-04-29 16:38 32.18292 34.85324 663 ft 117 kts 183°
2026-04-29 16:39 32.17660 34.85149 531 ft 70 kts 234°
2026-04-29 16:39 32.17667 34.84676 418 ft 66 kts 294°
2026-04-29 16:39 32.17831 34.84140 199 ft 65 kts 291°
2026-04-29 16:39 32.17959 34.83706 120 ft 46 kts 289°
2026-04-29 16:40 32.18114 34.83192 307 ft 85 kts 293°
2026-04-29 16:40 32.18444 34.82522 553 ft 116 kts 346°
2026-04-29 16:40 32.19010 34.83209 598 ft 151 kts 87°
2026-04-29 16:40 32.18852 34.84037 648 ft 161 kts 102°
2026-04-29 16:41 32.18068 34.85271 689 ft 141 kts 187°
2026-04-29 16:41 32.17623 34.84794 564 ft 70 kts 285°
2026-04-29 16:41 32.17786 34.84280 271 ft 68 kts 292°
2026-04-29 16:41 32.17933 34.83793 128 ft 57 kts 289°
2026-04-29 16:42 32.18064 34.83333 149 ft 80 kts 290°
2026-04-29 16:42 32.18199 34.82867 418 ft 97 kts 290°
2026-04-29 16:42 32.18801 34.82726 489 ft 134 kts 34°
2026-04-29 16:42 32.18887 34.83835 695 ft 156 kts 99°
2026-04-29 16:43 32.18606 34.85140 690 ft 155 kts 109°
2026-04-29 16:43 32.17870 34.85313 800 ft 96 kts 195°
2026-04-29 16:43 32.17589 34.84952 642 ft 60 kts 295°
2026-04-29 16:43 32.17719 34.84482 402 ft 65 kts 296°
2026-04-29 16:44 32.17874 34.83991 154 ft 58 kts 287°
2026-04-29 16:44 32.17989 34.83600 116 ft 57 kts 283°
2026-04-29 16:44 32.18176 34.82944 351 ft 105 kts 290°
2026-04-29 16:44 32.18790 34.82661 551 ft 128 kts 39°
2026-04-29 16:45 32.18915 34.83759 779 ft 151 kts 97°
2026-04-29 16:45 32.18379 34.84592 781 ft 117 kts 184°
2026-04-29 16:45 32.17746 34.84401 482 ft 75 kts 259°
2026-04-29 16:45 32.17900 34.83907 147 ft 65 kts 287°
2026-04-29 16:46 32.18011 34.83525 110 ft 35 kts 299°
2026-04-29 16:46 32.18084 34.83305 100 ft 24 kts 300°